Year,Month,Day,Hour,Minute,Value (Times are PST for temperature in C)
2008,07,14,00,00,13.70
2008,07,14,00,01,13.70
2008,07,14,00,02,13.70
2008,07,14,00,03,13.70
2008,07,14,00,04,13.70
2008,07,14,00,05,13.70
2008,07,14,00,06,13.60
2008,07,14,00,07,13.60
2008,07,14,00,08,13.60
2008,07,14,00,09,13.60
2008,07,14,00,10,13.60
2008,07,14,00,11,13.60
2008,07,14,00,12,13.60
2008,07,14,00,13,13.60
2008,07,14,00,14,13.60
2008,07,14,00,15,13.60
2008,07,14,00,16,13.60
2008,07,14,00,17,13.50
2008,07,14,00,18,13.50
2008,07,14,00,19,13.50
2008,07,14,00,20,13.50
2008,07,14,00,21,13.50
2008,07,14,00,22,13.60
2008,07,14,00,23,13.60
2008,07,14,00,24,13.60
2008,07,14,00,25,13.60
2008,07,14,00,26,13.60
2008,07,14,00,27,13.70
2008,07,14,00,28,13.70
2008,07,14,00,29,13.70
2008,07,14,00,30,13.70
2008,07,14,00,31,13.70
2008,07,14,00,32,13.70
2008,07,14,00,33,13.70
2008,07,14,00,34,13.70
2008,07,14,00,35,13.70
2008,07,14,00,36,13.70
2008,07,14,00,37,13.70
2008,07,14,00,38,13.70
2008,07,14,00,39,13.70
2008,07,14,00,40,13.70
2008,07,14,00,41,13.70
2008,07,14,00,42,13.70
2008,07,14,00,43,13.70
2008,07,14,00,44,13.70
2008,07,14,00,45,13.60
2008,07,14,00,46,13.60
2008,07,14,00,47,13.50
2008,07,14,00,48,13.50
2008,07,14,00,49,13.50
2008,07,14,00,50,13.40
2008,07,14,00,51,13.40
2008,07,14,00,52,13.40
2008,07,14,00,53,13.40
2008,07,14,00,54,13.30
2008,07,14,00,55,13.30
2008,07,14,00,56,13.30
2008,07,14,00,57,13.30
2008,07,14,00,58,13.30
2008,07,14,00,59,13.20
2008,07,14,01,00,13.20
2008,07,14,01,01,13.20
2008,07,14,01,02,13.20
2008,07,14,01,03,13.20
2008,07,14,01,04,13.20
2008,07,14,01,05,13.20
2008,07,14,01,06,13.20
2008,07,14,01,07,13.10
2008,07,14,01,08,13.10
2008,07,14,01,09,13.10
2008,07,14,01,10,13.10
2008,07,14,01,11,13.10
2008,07,14,01,12,13.10
2008,07,14,01,13,13.10
2008,07,14,01,14,13.00
2008,07,14,01,15,13.00
2008,07,14,01,16,13.00
2008,07,14,01,17,13.00
2008,07,14,01,18,12.90
2008,07,14,01,19,12.90
2008,07,14,01,20,12.90
2008,07,14,01,21,12.90
2008,07,14,01,22,12.90
2008,07,14,01,23,12.90
2008,07,14,01,24,12.80
2008,07,14,01,25,12.90
2008,07,14,01,26,12.80
2008,07,14,01,27,12.80
2008,07,14,01,28,12.80
2008,07,14,01,29,12.80
2008,07,14,01,30,12.80
2008,07,14,01,31,12.80
2008,07,14,01,32,12.80
2008,07,14,01,33,12.80
2008,07,14,01,34,12.80
2008,07,14,01,35,12.80
2008,07,14,01,36,12.80
2008,07,14,01,37,12.80
2008,07,14,01,38,12.80
2008,07,14,01,39,12.80
2008,07,14,01,40,12.80
2008,07,14,01,41,12.80
2008,07,14,01,42,12.80
2008,07,14,01,43,12.80
2008,07,14,01,44,12.70
2008,07,14,01,45,12.70
2008,07,14,01,46,12.70
2008,07,14,01,47,12.70
2008,07,14,01,48,12.70
2008,07,14,01,49,12.60
2008,07,14,01,50,12.60
2008,07,14,01,51,12.60
2008,07,14,01,52,12.60
2008,07,14,01,53,12.60
2008,07,14,01,54,12.70
2008,07,14,01,55,12.70
2008,07,14,01,56,12.70
2008,07,14,01,57,12.70
2008,07,14,01,58,12.80
2008,07,14,01,59,12.80
2008,07,14,02,00,12.70
2008,07,14,02,01,12.70
2008,07,14,02,02,12.70
2008,07,14,02,03,12.70
2008,07,14,02,04,12.70
2008,07,14,02,05,12.60
2008,07,14,02,06,12.60
2008,07,14,02,07,12.60
2008,07,14,02,08,12.60
2008,07,14,02,09,12.60
2008,07,14,02,10,12.50
2008,07,14,02,11,12.50
2008,07,14,02,12,12.40
2008,07,14,02,13,12.40
2008,07,14,02,14,12.40
2008,07,14,02,15,12.40
2008,07,14,02,16,12.30
2008,07,14,02,17,12.30
2008,07,14,02,18,12.30
2008,07,14,02,19,12.30
2008,07,14,02,20,12.30
2008,07,14,02,21,12.20
2008,07,14,02,22,12.20
2008,07,14,02,23,12.20
2008,07,14,02,24,12.20
2008,07,14,02,25,12.20
2008,07,14,02,26,12.20
2008,07,14,02,27,12.20
2008,07,14,02,28,12.20
2008,07,14,02,29,12.20
2008,07,14,02,30,12.20
2008,07,14,02,31,12.10
2008,07,14,02,32,12.10
2008,07,14,02,33,12.10
2008,07,14,02,34,12.10
2008,07,14,02,35,12.10
2008,07,14,02,36,12.10
2008,07,14,02,37,12.00
2008,07,14,02,38,12.00
2008,07,14,02,39,12.00
2008,07,14,02,40,11.90
2008,07,14,02,41,11.90
2008,07,14,02,42,11.90
2008,07,14,02,43,11.90
2008,07,14,02,44,11.90
2008,07,14,02,45,11.90
2008,07,14,02,46,11.90
2008,07,14,02,47,11.80
2008,07,14,02,48,11.80
2008,07,14,02,49,11.80
2008,07,14,02,50,11.80
2008,07,14,02,51,11.80
2008,07,14,02,52,11.80
2008,07,14,02,53,11.80
2008,07,14,02,54,11.80
2008,07,14,02,55,11.80
2008,07,14,02,56,11.80
2008,07,14,02,57,11.80
2008,07,14,02,58,11.80
2008,07,14,02,59,11.70
2008,07,14,03,00,11.70
2008,07,14,03,01,11.70
2008,07,14,03,02,11.70
2008,07,14,03,03,11.70
2008,07,14,03,04,11.70
2008,07,14,03,05,11.70
2008,07,14,03,06,11.70
2008,07,14,03,07,11.70
2008,07,14,03,08,11.70
2008,07,14,03,09,11.70
2008,07,14,03,10,11.70
2008,07,14,03,11,11.70
2008,07,14,03,12,11.60
2008,07,14,03,13,11.60
2008,07,14,03,14,11.60
2008,07,14,03,15,11.60
2008,07,14,03,16,11.60
2008,07,14,03,17,11.60
2008,07,14,03,18,11.60
2008,07,14,03,19,11.60
2008,07,14,03,20,11.70
2008,07,14,03,21,11.70
2008,07,14,03,22,11.80
2008,07,14,03,23,11.80
2008,07,14,03,24,11.80
2008,07,14,03,25,11.80
2008,07,14,03,26,11.80
2008,07,14,03,27,11.80
2008,07,14,03,28,11.80
2008,07,14,03,29,11.80
2008,07,14,03,30,11.80
2008,07,14,03,31,11.70
2008,07,14,03,32,11.70
2008,07,14,03,33,11.70
2008,07,14,03,34,11.70
2008,07,14,03,35,11.60
2008,07,14,03,36,11.60
2008,07,14,03,37,11.50
2008,07,14,03,38,11.50
2008,07,14,03,39,11.50
2008,07,14,03,40,11.40
2008,07,14,03,41,11.40
2008,07,14,03,42,11.40
2008,07,14,03,43,11.40
2008,07,14,03,44,11.30
2008,07,14,03,45,11.40
2008,07,14,03,46,11.40
2008,07,14,03,47,11.40
2008,07,14,03,48,11.40
2008,07,14,03,49,11.40
2008,07,14,03,50,11.40
2008,07,14,03,51,11.40
2008,07,14,03,52,11.40
2008,07,14,03,53,11.40
2008,07,14,03,54,11.40
2008,07,14,03,55,11.40
2008,07,14,03,56,11.40
2008,07,14,03,57,11.40
2008,07,14,03,58,11.40
2008,07,14,03,59,11.40
2008,07,14,04,00,11.40
2008,07,14,04,01,11.40
2008,07,14,04,02,11.40
2008,07,14,04,03,11.40
2008,07,14,04,04,11.40
2008,07,14,04,05,11.30
2008,07,14,04,06,11.30
2008,07,14,04,07,11.30
2008,07,14,04,08,11.30
2008,07,14,04,09,11.20
2008,07,14,04,10,11.20
2008,07,14,04,11,11.20
2008,07,14,04,12,11.20
2008,07,14,04,13,11.10
2008,07,14,04,14,11.10
2008,07,14,04,15,11.10
2008,07,14,04,16,11.10
2008,07,14,04,17,11.00
2008,07,14,04,18,11.00
2008,07,14,04,19,11.00
2008,07,14,04,20,11.00
2008,07,14,04,21,10.90
2008,07,14,04,22,10.90
2008,07,14,04,23,10.90
2008,07,14,04,24,10.90
2008,07,14,04,25,10.90
2008,07,14,04,26,10.90
2008,07,14,04,27,10.90
2008,07,14,04,28,10.90
2008,07,14,04,29,10.90
2008,07,14,04,30,10.90
2008,07,14,04,31,10.90
2008,07,14,04,32,10.90
2008,07,14,04,33,11.00
2008,07,14,04,34,11.10
2008,07,14,04,35,11.10
2008,07,14,04,36,11.20
2008,07,14,04,37,11.20
2008,07,14,04,38,11.20
2008,07,14,04,39,11.20
2008,07,14,04,40,11.20
2008,07,14,04,41,11.20
2008,07,14,04,42,11.20
2008,07,14,04,43,11.20
2008,07,14,04,44,11.10
2008,07,14,04,45,11.10
2008,07,14,04,46,11.10
2008,07,14,04,47,11.00
2008,07,14,04,48,11.00
2008,07,14,04,49,10.90
2008,07,14,04,50,10.90
2008,07,14,04,51,10.90
2008,07,14,04,52,10.80
2008,07,14,04,53,10.80
2008,07,14,04,54,10.80
2008,07,14,04,55,10.80
2008,07,14,04,56,10.80
2008,07,14,04,57,10.80
2008,07,14,04,58,10.80
2008,07,14,04,59,10.80
2008,07,14,05,00,10.80
2008,07,14,05,01,10.80
2008,07,14,05,02,10.80
2008,07,14,05,03,10.80
2008,07,14,05,04,10.80
2008,07,14,05,05,10.80
2008,07,14,05,06,10.80
2008,07,14,05,07,10.70
2008,07,14,05,08,10.70
2008,07,14,05,09,10.70
2008,07,14,05,10,10.70
2008,07,14,05,11,10.70
2008,07,14,05,12,10.70
2008,07,14,05,13,10.60
2008,07,14,05,14,10.60
2008,07,14,05,15,10.50
2008,07,14,05,16,10.50
2008,07,14,05,17,10.40
2008,07,14,05,18,10.40
2008,07,14,05,19,10.40
2008,07,14,05,20,10.40
2008,07,14,05,21,10.30
2008,07,14,05,22,10.30
2008,07,14,05,23,10.30
2008,07,14,05,24,10.30
2008,07,14,05,25,10.30
2008,07,14,05,26,10.30
2008,07,14,05,27,10.30
2008,07,14,05,28,10.30
2008,07,14,05,29,10.30
2008,07,14,05,30,10.20
2008,07,14,05,31,10.20
2008,07,14,05,32,10.20
2008,07,14,05,33,10.20
2008,07,14,05,34,10.20
2008,07,14,05,35,10.20
2008,07,14,05,36,10.20
2008,07,14,05,37,10.20
2008,07,14,05,38,10.20
2008,07,14,05,39,10.20
2008,07,14,05,40,10.20
2008,07,14,05,41,10.20
2008,07,14,05,42,10.20
2008,07,14,05,43,10.10
2008,07,14,05,44,10.10
2008,07,14,05,45,10.10
2008,07,14,05,46,10.10
2008,07,14,05,47,10.10
2008,07,14,05,48,10.10
2008,07,14,05,49,10.10
2008,07,14,05,50,10.10
2008,07,14,05,51,10.10
2008,07,14,05,52,10.10
2008,07,14,05,53,10.10
2008,07,14,05,54,10.00
2008,07,14,05,55,10.00
2008,07,14,05,56,10.00
2008,07,14,05,57,10.00
2008,07,14,05,58,10.00
2008,07,14,05,59,10.00
2008,07,14,06,00,10.00
2008,07,14,06,01,10.00
2008,07,14,06,02,10.00
2008,07,14,06,03,10.00
2008,07,14,06,04,10.00
2008,07,14,06,05,10.00
2008,07,14,06,06,10.10
2008,07,14,06,07,10.10
2008,07,14,06,08,10.10
2008,07,14,06,09,10.10
2008,07,14,06,10,10.10
2008,07,14,06,11,10.10
2008,07,14,06,12,10.10
2008,07,14,06,13,10.10
2008,07,14,06,14,10.10
2008,07,14,06,15,10.10
2008,07,14,06,16,10.20
2008,07,14,06,17,10.20
2008,07,14,06,18,10.20
2008,07,14,06,19,10.20
2008,07,14,06,20,10.20
2008,07,14,06,21,10.30
2008,07,14,06,22,10.30
2008,07,14,06,23,10.30
2008,07,14,06,24,10.40
2008,07,14,06,25,10.40
2008,07,14,06,26,10.50
2008,07,14,06,27,10.50
2008,07,14,06,28,10.60
2008,07,14,06,29,10.60
2008,07,14,06,30,10.70
2008,07,14,06,31,10.70
2008,07,14,06,32,10.70
2008,07,14,06,33,10.80
2008,07,14,06,34,10.80
2008,07,14,06,35,10.80
2008,07,14,06,36,10.90
2008,07,14,06,37,11.00
2008,07,14,06,38,11.10
2008,07,14,06,39,11.20
2008,07,14,06,40,11.30
2008,07,14,06,41,11.30
2008,07,14,06,42,11.50
2008,07,14,06,43,11.50
2008,07,14,06,44,11.60
2008,07,14,06,45,11.70
2008,07,14,06,46,11.80
2008,07,14,06,47,11.80
2008,07,14,06,48,11.90
2008,07,14,06,49,11.90
2008,07,14,06,50,12.00
2008,07,14,06,51,12.10
2008,07,14,06,52,12.10
2008,07,14,06,53,12.20
2008,07,14,06,54,12.20
2008,07,14,06,55,12.20
2008,07,14,06,56,12.20
2008,07,14,06,57,12.30
2008,07,14,06,58,12.50
2008,07,14,06,59,12.60
2008,07,14,07,00,12.70
2008,07,14,07,01,12.90
2008,07,14,07,02,13.10
2008,07,14,07,03,13.20
2008,07,14,07,04,13.30
2008,07,14,07,05,13.50
2008,07,14,07,06,13.60
2008,07,14,07,07,13.80
2008,07,14,07,08,13.90
2008,07,14,07,09,14.00
2008,07,14,07,10,14.20
2008,07,14,07,11,14.20
2008,07,14,07,12,14.30
2008,07,14,07,13,14.40
2008,07,14,07,14,14.50
2008,07,14,07,15,14.60
2008,07,14,07,16,14.60
2008,07,14,07,17,14.50
2008,07,14,07,18,14.50
2008,07,14,07,19,14.60
2008,07,14,07,20,14.60
2008,07,14,07,21,14.60
2008,07,14,07,22,14.80
2008,07,14,07,23,14.90
2008,07,14,07,24,15.00
2008,07,14,07,25,15.00
2008,07,14,07,26,15.00
2008,07,14,07,27,15.00
2008,07,14,07,28,15.00
2008,07,14,07,29,15.00
2008,07,14,07,30,15.00
2008,07,14,07,31,15.00
2008,07,14,07,32,15.00
2008,07,14,07,33,15.00
2008,07,14,07,34,15.00
2008,07,14,07,35,15.00
2008,07,14,07,36,15.00
2008,07,14,07,37,15.10
2008,07,14,07,38,15.10
2008,07,14,07,39,15.00
2008,07,14,07,40,15.00
2008,07,14,07,41,15.00
2008,07,14,07,42,15.10
2008,07,14,07,43,15.20
2008,07,14,07,44,15.30
2008,07,14,07,45,15.40
2008,07,14,07,46,15.50
2008,07,14,07,47,15.60
2008,07,14,07,48,15.70
2008,07,14,07,49,15.70
2008,07,14,07,50,15.70
2008,07,14,07,51,15.80
2008,07,14,07,52,15.80
2008,07,14,07,53,15.90
2008,07,14,07,54,15.90
2008,07,14,07,55,16.00
2008,07,14,07,56,16.00
2008,07,14,07,57,16.10
2008,07,14,07,58,16.20
2008,07,14,07,59,16.30
2008,07,14,08,00,16.40
2008,07,14,08,01,16.50
2008,07,14,08,02,16.50
2008,07,14,08,03,16.50
2008,07,14,08,04,16.50
2008,07,14,08,05,16.50
2008,07,14,08,06,16.50
2008,07,14,08,07,16.30
2008,07,14,08,08,16.30
2008,07,14,08,09,16.30
2008,07,14,08,10,16.30
2008,07,14,08,11,16.30
2008,07,14,08,12,16.30
2008,07,14,08,13,16.30
2008,07,14,08,14,16.30
2008,07,14,08,15,16.30
2008,07,14,08,16,16.30
2008,07,14,08,17,16.30
2008,07,14,08,18,16.40
2008,07,14,08,19,16.50
2008,07,14,08,20,16.60
2008,07,14,08,21,16.60
2008,07,14,08,22,16.50
2008,07,14,08,23,16.40
2008,07,14,08,24,16.40
2008,07,14,08,25,16.30
2008,07,14,08,26,16.40
2008,07,14,08,27,16.50
2008,07,14,08,28,16.60
2008,07,14,08,29,16.60
2008,07,14,08,30,16.60
2008,07,14,08,31,16.60
2008,07,14,08,32,16.60
2008,07,14,08,33,16.60
2008,07,14,08,34,16.70
2008,07,14,08,35,16.80
2008,07,14,08,36,16.80
2008,07,14,08,37,16.80
2008,07,14,08,38,16.60
2008,07,14,08,39,16.50
2008,07,14,08,40,16.40
2008,07,14,08,41,16.30
2008,07,14,08,42,16.30
2008,07,14,08,43,16.40
2008,07,14,08,44,16.50
2008,07,14,08,45,16.60
2008,07,14,08,46,16.70
2008,07,14,08,47,16.70
2008,07,14,08,48,16.80
2008,07,14,08,49,16.80
2008,07,14,08,50,16.70
2008,07,14,08,51,16.70
2008,07,14,08,52,16.70
2008,07,14,08,53,16.70
2008,07,14,08,54,16.80
2008,07,14,08,55,16.80
2008,07,14,08,56,17.00
2008,07,14,08,57,17.00
2008,07,14,08,58,16.90
2008,07,14,08,59,16.90
2008,07,14,09,00,16.80
2008,07,14,09,01,16.70
2008,07,14,09,02,16.70
2008,07,14,09,03,16.70
2008,07,14,09,04,16.80
2008,07,14,09,05,16.80
2008,07,14,09,06,16.80
2008,07,14,09,07,16.80
2008,07,14,09,08,16.90
2008,07,14,09,09,17.10
2008,07,14,09,10,17.20
2008,07,14,09,11,17.30
2008,07,14,09,12,17.30
2008,07,14,09,13,17.20
2008,07,14,09,14,17.20
2008,07,14,09,15,17.20
2008,07,14,09,16,17.20
2008,07,14,09,17,17.20
2008,07,14,09,18,17.10
2008,07,14,09,19,17.10
2008,07,14,09,20,17.10
2008,07,14,09,21,17.10
2008,07,14,09,22,17.10
2008,07,14,09,23,17.30
2008,07,14,09,24,17.30
2008,07,14,09,25,17.50
2008,07,14,09,26,17.50
2008,07,14,09,27,17.40
2008,07,14,09,28,17.40
2008,07,14,09,29,17.40
2008,07,14,09,30,17.30
2008,07,14,09,31,17.10
2008,07,14,09,32,16.90
2008,07,14,09,33,16.70
2008,07,14,09,34,16.70
2008,07,14,09,35,16.70
2008,07,14,09,36,16.70
2008,07,14,09,37,16.60
2008,07,14,09,38,16.60
2008,07,14,09,39,16.60
2008,07,14,09,40,16.60
2008,07,14,09,41,16.70
2008,07,14,09,42,16.80
2008,07,14,09,43,16.80
2008,07,14,09,44,17.00
2008,07,14,09,45,17.20
2008,07,14,09,46,17.20
2008,07,14,09,47,17.30
2008,07,14,09,48,17.40
2008,07,14,09,49,17.40
2008,07,14,09,50,17.40
2008,07,14,09,51,17.50
2008,07,14,09,52,17.60
2008,07,14,09,53,17.70
2008,07,14,09,54,17.80
2008,07,14,09,55,17.90
2008,07,14,09,56,17.90
2008,07,14,09,57,17.70
2008,07,14,09,58,17.70
2008,07,14,09,59,17.50
2008,07,14,10,00,17.40
2008,07,14,10,01,17.30
2008,07,14,10,02,17.30
2008,07,14,10,03,17.20
2008,07,14,10,04,17.10
2008,07,14,10,05,17.20
2008,07,14,10,06,17.10
2008,07,14,10,07,17.20
2008,07,14,10,08,17.20
2008,07,14,10,09,17.30
2008,07,14,10,10,17.40
2008,07,14,10,11,17.50
2008,07,14,10,12,17.60
2008,07,14,10,13,17.50
2008,07,14,10,14,17.50
2008,07,14,10,15,17.50
2008,07,14,10,16,17.60
2008,07,14,10,17,17.70
2008,07,14,10,18,17.80
2008,07,14,10,19,18.00
2008,07,14,10,20,18.10
2008,07,14,10,21,18.10
2008,07,14,10,22,18.10
2008,07,14,10,23,18.10
2008,07,14,10,24,18.00
2008,07,14,10,25,17.90
2008,07,14,10,26,17.90
2008,07,14,10,27,17.80
2008,07,14,10,28,17.80
2008,07,14,10,29,17.80
2008,07,14,10,30,17.70
2008,07,14,10,31,17.70
2008,07,14,10,32,17.70
2008,07,14,10,33,17.70
2008,07,14,10,34,17.70
2008,07,14,10,35,17.60
2008,07,14,10,36,17.50
2008,07,14,10,37,17.50
2008,07,14,10,38,17.50
2008,07,14,10,39,17.60
2008,07,14,10,40,17.70
2008,07,14,10,41,17.80
2008,07,14,10,42,17.90
2008,07,14,10,43,17.90
2008,07,14,10,44,17.90
2008,07,14,10,45,18.00
2008,07,14,10,46,18.10
2008,07,14,10,47,18.20
2008,07,14,10,48,18.10
2008,07,14,10,49,18.10
2008,07,14,10,50,18.10
2008,07,14,10,51,18.20
2008,07,14,10,52,18.30
2008,07,14,10,53,18.30
2008,07,14,10,54,18.30
2008,07,14,10,55,18.20
2008,07,14,10,56,18.20
2008,07,14,10,57,18.20
2008,07,14,10,58,18.30
2008,07,14,10,59,18.40
2008,07,14,11,00,18.40
2008,07,14,11,01,18.50
2008,07,14,11,02,18.60
2008,07,14,11,03,18.70
2008,07,14,11,04,18.70
2008,07,14,11,05,18.90
2008,07,14,11,06,18.90
2008,07,14,11,07,19.00
2008,07,14,11,08,19.00
2008,07,14,11,09,19.10
2008,07,14,11,10,19.30
2008,07,14,11,11,19.30
2008,07,14,11,12,19.40
2008,07,14,11,13,19.40
2008,07,14,11,14,19.30
2008,07,14,11,15,19.30
2008,07,14,11,16,19.10
2008,07,14,11,17,18.90
2008,07,14,11,18,18.90
2008,07,14,11,19,18.90
2008,07,14,11,20,18.90
2008,07,14,11,21,18.90
2008,07,14,11,22,18.90
2008,07,14,11,23,18.90
2008,07,14,11,24,18.90
2008,07,14,11,25,18.90
2008,07,14,11,26,19.10
2008,07,14,11,27,19.20
2008,07,14,11,28,19.30
2008,07,14,11,29,19.30
2008,07,14,11,30,19.40
2008,07,14,11,31,19.30
2008,07,14,11,32,19.20
2008,07,14,11,33,19.00
2008,07,14,11,34,19.00
2008,07,14,11,35,18.90
2008,07,14,11,36,18.90
2008,07,14,11,37,18.90
2008,07,14,11,38,18.80
2008,07,14,11,39,18.70
2008,07,14,11,40,18.60
2008,07,14,11,41,18.60
2008,07,14,11,42,18.60
2008,07,14,11,43,18.60
2008,07,14,11,44,18.60
2008,07,14,11,45,18.70
2008,07,14,11,46,18.70
2008,07,14,11,47,18.70
2008,07,14,11,48,18.80
2008,07,14,11,49,18.80
2008,07,14,11,50,18.90
2008,07,14,11,51,18.80
2008,07,14,11,52,18.80
2008,07,14,11,53,18.80
2008,07,14,11,54,18.90
2008,07,14,11,55,18.90
2008,07,14,11,56,18.80
2008,07,14,11,57,18.70
2008,07,14,11,58,18.70
2008,07,14,11,59,18.60
2008,07,14,12,00,18.60
2008,07,14,12,01,18.50
2008,07,14,12,02,18.40
2008,07,14,12,03,18.30
2008,07,14,12,04,18.40
2008,07,14,12,05,18.50
2008,07,14,12,06,18.50
2008,07,14,12,07,18.60
2008,07,14,12,08,18.60
2008,07,14,12,09,18.60
2008,07,14,12,10,18.60
2008,07,14,12,11,18.60
2008,07,14,12,12,18.50
2008,07,14,12,13,18.60
2008,07,14,12,14,18.60
2008,07,14,12,15,18.70
2008,07,14,12,16,18.70
2008,07,14,12,17,18.70
2008,07,14,12,18,18.80
2008,07,14,12,19,18.80
2008,07,14,12,20,18.80
2008,07,14,12,21,18.70
2008,07,14,12,22,18.70
2008,07,14,12,23,18.70
2008,07,14,12,24,18.70
2008,07,14,12,25,18.70
2008,07,14,12,26,18.80
2008,07,14,12,27,18.90
2008,07,14,12,28,19.00
2008,07,14,12,29,19.20
2008,07,14,12,30,19.30
2008,07,14,12,31,19.30
2008,07,14,12,32,19.30
2008,07,14,12,33,19.40
2008,07,14,12,34,19.30
2008,07,14,12,35,19.40
2008,07,14,12,36,19.40
2008,07,14,12,37,19.40
2008,07,14,12,38,19.40
2008,07,14,12,39,19.40
2008,07,14,12,40,19.30
2008,07,14,12,41,19.20
2008,07,14,12,42,19.10
2008,07,14,12,43,19.10
2008,07,14,12,44,19.10
2008,07,14,12,45,19.10
2008,07,14,12,46,19.10
2008,07,14,12,47,19.10
2008,07,14,12,48,19.10
2008,07,14,12,49,19.20
2008,07,14,12,50,19.30
2008,07,14,12,51,19.50
2008,07,14,12,52,19.50
2008,07,14,12,53,19.60
2008,07,14,12,54,19.60
2008,07,14,12,55,19.50
2008,07,14,12,56,19.30
2008,07,14,12,57,19.20
2008,07,14,12,58,19.10
2008,07,14,12,59,19.10
2008,07,14,13,00,19.20
2008,07,14,13,01,19.20
2008,07,14,13,02,19.20
2008,07,14,13,03,19.20
2008,07,14,13,04,19.20
2008,07,14,13,05,19.30
2008,07,14,13,06,19.40
2008,07,14,13,07,19.50
2008,07,14,13,08,19.60
2008,07,14,13,09,19.50
2008,07,14,13,10,19.50
2008,07,14,13,11,19.60
2008,07,14,13,12,19.60
2008,07,14,13,13,19.60
2008,07,14,13,14,19.70
2008,07,14,13,15,19.70
2008,07,14,13,16,19.80
2008,07,14,13,17,19.70
2008,07,14,13,18,19.60
2008,07,14,13,19,19.60
2008,07,14,13,20,19.60
2008,07,14,13,21,19.60
2008,07,14,13,22,19.60
2008,07,14,13,23,19.60
2008,07,14,13,24,19.70
2008,07,14,13,25,19.80
2008,07,14,13,26,19.80
2008,07,14,13,27,19.80
2008,07,14,13,28,19.70
2008,07,14,13,29,19.60
2008,07,14,13,30,19.50
2008,07,14,13,31,19.50
2008,07,14,13,32,19.60
2008,07,14,13,33,19.60
2008,07,14,13,34,19.60
2008,07,14,13,35,19.60
2008,07,14,13,36,19.70
2008,07,14,13,37,19.80
2008,07,14,13,38,19.90
2008,07,14,13,39,20.10
2008,07,14,13,40,20.30
2008,07,14,13,41,20.40
2008,07,14,13,42,20.50
2008,07,14,13,43,20.60
2008,07,14,13,44,20.70
2008,07,14,13,45,20.70
2008,07,14,13,46,20.60
2008,07,14,13,47,20.50
2008,07,14,13,48,20.40
2008,07,14,13,49,20.40
2008,07,14,13,50,20.30
2008,07,14,13,51,20.30
2008,07,14,13,52,20.20
2008,07,14,13,53,20.10
2008,07,14,13,54,20.10
2008,07,14,13,55,20.00
2008,07,14,13,56,20.00
2008,07,14,13,57,19.80
2008,07,14,13,58,19.60
2008,07,14,13,59,19.40
2008,07,14,14,00,19.30
2008,07,14,14,01,19.30
2008,07,14,14,02,19.30
2008,07,14,14,03,19.20
2008,07,14,14,04,19.30
2008,07,14,14,05,19.40
2008,07,14,14,06,19.50
2008,07,14,14,07,19.60
2008,07,14,14,08,19.60
2008,07,14,14,09,19.70
2008,07,14,14,10,19.80
2008,07,14,14,11,20.00
2008,07,14,14,12,20.00
2008,07,14,14,13,19.90
2008,07,14,14,14,19.70
2008,07,14,14,15,19.70
2008,07,14,14,16,19.70
2008,07,14,14,17,19.60
2008,07,14,14,18,19.50
2008,07,14,14,19,19.50
2008,07,14,14,20,19.40
2008,07,14,14,21,19.40
2008,07,14,14,22,19.40
2008,07,14,14,23,19.40
2008,07,14,14,24,19.40
2008,07,14,14,25,19.30
2008,07,14,14,26,19.30
2008,07,14,14,27,19.20
2008,07,14,14,28,19.20
2008,07,14,14,29,19.10
2008,07,14,14,30,19.00
2008,07,14,14,31,18.90
2008,07,14,14,32,18.80
2008,07,14,14,33,18.70
2008,07,14,14,34,18.60
2008,07,14,14,35,18.60
2008,07,14,14,36,18.60
2008,07,14,14,37,18.50
2008,07,14,14,38,18.50
2008,07,14,14,39,18.50
2008,07,14,14,40,18.40
2008,07,14,14,41,18.40
2008,07,14,14,42,18.40
2008,07,14,14,43,18.30
2008,07,14,14,44,18.30
2008,07,14,14,45,18.20
2008,07,14,14,46,18.20
2008,07,14,14,47,18.20
2008,07,14,14,48,18.20
2008,07,14,14,49,18.30
2008,07,14,14,50,18.30
2008,07,14,14,51,18.30
2008,07,14,14,52,18.30
2008,07,14,14,53,18.40
2008,07,14,14,54,18.50
2008,07,14,14,55,18.50
2008,07,14,14,56,18.60
2008,07,14,14,57,18.70
2008,07,14,14,58,18.80
2008,07,14,14,59,18.80
2008,07,14,15,00,18.90
2008,07,14,15,01,18.90
2008,07,14,15,02,18.90
2008,07,14,15,03,18.90
2008,07,14,15,04,18.90
2008,07,14,15,05,18.80
2008,07,14,15,06,18.70
2008,07,14,15,07,18.70
2008,07,14,15,08,18.70
2008,07,14,15,09,18.60
2008,07,14,15,10,18.50
2008,07,14,15,11,18.40
2008,07,14,15,12,18.40
2008,07,14,15,13,18.30
2008,07,14,15,14,18.30
2008,07,14,15,15,18.30
2008,07,14,15,16,18.30
2008,07,14,15,17,18.20
2008,07,14,15,18,18.20
2008,07,14,15,19,18.20
2008,07,14,15,20,18.20
2008,07,14,15,21,18.20
2008,07,14,15,22,18.20
2008,07,14,15,23,18.20
2008,07,14,15,24,18.20
2008,07,14,15,25,18.20
2008,07,14,15,26,18.30
2008,07,14,15,27,18.20
2008,07,14,15,28,18.20
2008,07,14,15,29,18.20
2008,07,14,15,30,18.10
2008,07,14,15,31,18.10
2008,07,14,15,32,18.00
2008,07,14,15,33,18.00
2008,07,14,15,34,18.00
2008,07,14,15,35,18.00
2008,07,14,15,36,17.90
2008,07,14,15,37,17.90
2008,07,14,15,38,17.90
2008,07,14,15,39,18.00
2008,07,14,15,40,18.00
2008,07,14,15,41,17.90
2008,07,14,15,42,17.90
2008,07,14,15,43,17.80
2008,07,14,15,44,17.80
2008,07,14,15,45,17.70
2008,07,14,15,46,17.70
2008,07,14,15,47,17.70
2008,07,14,15,48,17.60
2008,07,14,15,49,17.60
2008,07,14,15,50,17.60
2008,07,14,15,51,17.50
2008,07,14,15,52,17.50
2008,07,14,15,53,17.50
2008,07,14,15,54,17.40
2008,07,14,15,55,17.40
2008,07,14,15,56,17.40
2008,07,14,15,57,17.50
2008,07,14,15,58,17.50
2008,07,14,15,59,17.50
2008,07,14,16,00,17.50
2008,07,14,16,01,17.50
2008,07,14,16,02,17.50
2008,07,14,16,03,17.50
2008,07,14,16,04,17.50
2008,07,14,16,05,17.50
2008,07,14,16,06,17.50
2008,07,14,16,07,17.50
2008,07,14,16,08,17.60
2008,07,14,16,09,17.60
2008,07,14,16,10,17.60
2008,07,14,16,11,17.60
2008,07,14,16,12,17.60
2008,07,14,16,13,17.70
2008,07,14,16,14,17.70
2008,07,14,16,15,17.80
2008,07,14,16,16,17.80
2008,07,14,16,17,17.80
2008,07,14,16,18,17.90
2008,07,14,16,19,17.90
2008,07,14,16,20,17.90
2008,07,14,16,21,18.00
2008,07,14,16,22,18.00
2008,07,14,16,23,18.00
2008,07,14,16,24,18.10
2008,07,14,16,25,18.10
2008,07,14,16,26,18.00
2008,07,14,16,27,18.00
2008,07,14,16,28,18.00
2008,07,14,16,29,18.00
2008,07,14,16,30,18.00
2008,07,14,16,31,18.10
2008,07,14,16,32,18.10
2008,07,14,16,33,18.10
2008,07,14,16,34,18.20
2008,07,14,16,35,18.20
2008,07,14,16,36,18.20
2008,07,14,16,37,18.20
2008,07,14,16,38,18.30
2008,07,14,16,39,18.30
2008,07,14,16,40,18.30
2008,07,14,16,41,18.30
2008,07,14,16,42,18.40
2008,07,14,16,43,18.40
2008,07,14,16,44,18.40
2008,07,14,16,45,18.40
2008,07,14,16,46,18.40
2008,07,14,16,47,18.50
2008,07,14,16,48,18.50
2008,07,14,16,49,18.50
2008,07,14,16,50,18.50
2008,07,14,16,51,18.50
2008,07,14,16,52,18.50
2008,07,14,16,53,18.40
2008,07,14,16,54,18.40
2008,07,14,16,55,18.40
2008,07,14,16,56,18.40
2008,07,14,16,57,18.40
2008,07,14,16,58,18.30
2008,07,14,16,59,18.30
2008,07,14,17,00,18.30
2008,07,14,17,01,18.30
2008,07,14,17,02,18.30
2008,07,14,17,03,18.30
2008,07,14,17,04,18.30
2008,07,14,17,05,18.30
2008,07,14,17,06,18.40
2008,07,14,17,07,18.40
2008,07,14,17,08,18.50
2008,07,14,17,09,18.60
2008,07,14,17,10,18.70
2008,07,14,17,11,18.70
2008,07,14,17,12,18.80
2008,07,14,17,13,18.80
2008,07,14,17,14,18.90
2008,07,14,17,15,18.90
2008,07,14,17,16,19.00
2008,07,14,17,17,19.00
2008,07,14,17,18,19.00
2008,07,14,17,19,18.90